{"data":{"norad_id":58483,"epoch":"2026-05-25T03:50:33.069408Z","epoch_age_seconds":58395,"freshness":"FRESH","line1":"1 58483U 23186L   26145.16010497  .00033680  00000+0  11354-2 0  9999","line2":"2 58483  42.9988 187.9210 0002626   5.8071 354.2812 15.30133684139502","mean_motion":15.30133684,"eccentricity":0.0002626,"inclination_deg":42.9988,"raan_deg":187.921,"arg_perigee_deg":5.8071,"mean_anomaly_deg":354.2812,"bstar":0.0011354,"rev_number":13950,"period_min":94.109424232504,"perigee_km":473.61334194102,"apogee_km":477.21282644523,"semimajor_km":6853.5500841931,"source":"CELESTRAK","updated_at":"2026-05-25T13:38:18.651948Z"}}